Dewpoint
14 14 12 11 11 13 12 12 12 12 12 12 12 13 12 12 12 11 11 11 11 11 11 12 11 12 11 11 8 8 9 10 10 10 10 9 10 9 8 8 8 7 6
14 13 13 13 12 11 11 11 11 12 13 13 13 12 12 12 13 12 12 12 12 11 11 11 13 12 12 11 9 7 8 9 10 10 10 10 10 10 9 8 8 8 7
12 12 12 12 12 11 11 11 11 10 10 11 12 12 12 12 11 11 12 12 11 11 8 8 12 11 12 12 11 9 7 9 9 10 10 10 10 10 10 9 9 8 8
10 11 11 11 11 10 10 11 10 10 10 9 9 9 9 9 7 8 8 10 9 8 8 8 9 10 13 13 12 11 9 9 9 10 10 10 10 10 10 10 10 9 8
6 7 8 10 10 10 9 9 10 10 10 10 9 8 9 7 -1 -4 0 8 10 10 9 8 9 10 11 12 11 12 10 10 10 10 10 10 10 10 11 11 10 10 10
1 1 1 2 4 7 8 7 6 7 7 8 7 4 -0 -5 -7 -6 -2 1 9 11 10 10 10 8 10 10 10 10 10 9 6 10 10 10 10 10 10 11 11 11 11
-3 -3 -4 -4 -4 -3 -2 -2 -1 -1 -3 -3 -3 -4 -6 -7 -8 -6 1 5 7 10 11 11 11 10 10 10 10 10 9 7 9 8 10 10 10 10 10 10 11 11 11
-0 -1 -1 -2 -3 -3 -5 -5 -5 -6 -6 -5 -5 -4 -3 -3 -7 -4 5 9 9 9 8 10 11 11 12 12 10 10 7 7 8 11 9 7 10 10 9 10 10 10 11
-0 0 0 0 0 0 1 1 -0 -2 -3 -2 -1 2 4 4 2 4 6 2 4 6 6 6 8 9 11 11 11 11 10 8 9 11 10 9 9 9 9 9 9 10 10
-3 -3 -2 -1 -1 -0 -0 0 1 1 0 0 -0 3 3 3 3 1 -4 -1 2 2 0 3 7 8 9 10 11 11 11 11 10 9 9 11 10 8 9 10 9 9 9
-4 -4 -3 -3 -2 -2 -1 -0 0 1 1 0 1 1 2 2 3 3 4 2 -0 -3 -2 -2 3 7 8 9 9 9 10 10 11 11 10 10 9 8 7 10 9 9 9
-3 -3 -3 -2 -2 -2 -1 -1 -1 -1 -1 -1 -1 -1 0 1 2 2 2 2 2 1 1 -1 -0 0 1 6 7 9 10 9 10 10 11 10 10 9 6 8 8 10 9
-2 -2 -2 -2 -2 -2 -3 -3 -3 -2 -2 -2 -1 -1 -1 -0 0 1 1 1 1 1 1 2 2 3 4 4 5 7 9 8 9 8 9 10 10 10 9 6 7 8 8
-3 -3 -3 -3 -3 -3 -3 -3 -2 -2 -2 -2 -2 -1 -1 -1 -0 0 0 -0 -0 0 1 1 2 3 3 4 3 4 5 6 7 8 8 9 9 10 10 10 8 7 8
-3 -3 -4 -3 -3 -3 -3 -5 -4 -4 -4 -4 -4 -3 -3 -3 -3 -1 -1 -2 -3 -2 -1 1 1 2 2 3 3 4 5 6 7 7 7 10 9 9 10 11 10 7 7
-4 -4 -5 -6 -4 -4 -5 -5 -5 -5 -5 -5 -5 -5 -5 -4 -5 -4 -3 -3 -3 -3 -2 -1 0 0 2 2 3 4 5 6 7 9 9 6 6 9 9 10 11 10 8
-5 -6 -9 -10 -5 -5 -4 -5 -6 -6 -6 -5 -5 -6 -6 -5 -5 -5 -4 -4 -4 -4 -3 -2 -2 -1 0 1 2 3 5 6 7 8 9 9 8 8 9 9 10 11 11
-10 -10 -12 -17 -7 -5 -6 -7 -8 -8 -8 -7 -12 -6 -5 -5 -5 -6 -5 -5 -4 -5 -4 -4 -4 -3 -2 -1 0 2 3 5 5 6 8 8 9 9 8 9 9 10 10
-14 -16 -19 -24 -13 -10 -11 -13 -15 -22 -22 -17 -23 -17 -9 -8 -7 -6 -7 -6 -5 -6 -6 -5 -5 -5 -5 -3 -2 -2 -1 1 4 5 6 7 8 9 8 9 9 9 9
-17 -20 -27 -30 -20 -15 -15 -15 -18 -28 -29 -27 -27 -25 -24 -20 -14 -9 -8 -8 -8 -7 -7 -7 -8 -8 -7 -7 -5 -4 -3 -3 -0 1 1 4 5 6 8 8 9 9 8
-20 -21 -33 -27 -21 -18 -21 -20 -22 -26 -33 -31 -30 -29 -28 -29 -26 -15 -11 -10 -11 -11 -11 -11 -11 -11 -13 -13 -10 -9 -8 -6 -5 -4 -4 -2 -1 1 3 5 7 8 8
-24 -26 -33 -26 -19 -14 -12 -24 -20 -25 -28 -29 -29 -26 -27 -30 -28 -24 -22 -20 -15 -16 -18 -18 -15 -13 -12 -13 -13 -14 -12 -11 -9 -7 -6 -6 -6 -5 -3 -1 1 3 5
-29 -31 -30 -31 -24 -16 -14 -22 -22 -26 -29 -27 -26 -24 -23 -27 -30 -30 -26 -25 -25 -26 -24 -23 -21 -18 -16 -14 -15 -18 -16 -12 -9 -8 -10 -14 -13 -11 -6 -2 -0 0 1
-29 -31 -31 -27 -29 -24 -23 -26 -26 -30 -29 -26 -23 -20 -19 -19 -32 -32 -30 -30 -30 -29 -27 -27 -25 -22 -21 -21 -22 -20 -20 -19 -12 -9 -13 -17 -18 -21 -10 -4 -7 -7 -5
-21 -25 -29 -27 -26 -27 -31 -29 -26 -27 -27 -24 -19 -14 -15 -15 -17 -29 -33 -33 -32 -32 -31 -31 -30 -26 -25 -26 -28 -28 -31 -28 -25 -11 -15 -16 -15 -22 -24 -11 -13 -14 -8
-16 -17 -25 -29 -27 -22 -22 -29 -24 -24 -25 -23 -20 -19 -14 -14 -15 -31 -34 -34 -34 -35 -38 -39 -38 -36 -35 -33 -33 -29 -25 -25 -21 -18 -16 -18 -17 -17 -19 -21 -28 -22 -17
Wind_Speed
16 18 19 19 20 17 18 19 21 22 24 27 28 27 27 31 33 34 33 31 30 31 31 32 37 35 31 28 26 29 28 29 29 29 28 28 28 26 25 25 24 22 22
15 14 14 16 19 21 20 20 21 22 23 24 24 27 28 28 30 32 35 36 34 34 33 35 38 43 34 33 30 30 30 29 30 31 30 30 30 29 28 28 26 25 24
12 14 17 20 23 27 28 25 25 26 25 25 25 25 26 26 27 32 30 31 35 31 37 42 40 41 41 35 32 34 32 31 31 31 32 32 31 31 31 30 29 27 25
14 15 15 18 18 20 27 30 32 29 29 28 28 26 25 24 22 22 25 24 22 22 37 35 27 37 31 42 35 32 34 32 31 32 33 34 33 33 33 33 33 31 29
9 11 13 15 17 19 20 23 30 34 32 31 28 26 23 20 19 17 17 15 16 22 23 34 33 33 31 33 27 29 32 30 31 33 34 35 36 35 35 35 35 35 33
9 10 11 12 14 17 20 18 19 21 26 28 29 27 23 20 16 13 13 15 10 16 18 17 30 27 27 19 24 28 30 31 34 36 36 35 38 37 37 37 37 37 37
10 10 10 10 11 14 15 17 17 19 20 21 24 23 20 18 14 11 13 12 11 11 13 15 21 26 30 41 38 22 33 29 36 39 39 36 37 39 38 38 38 39 40
11 12 12 12 11 11 12 14 16 16 18 16 15 13 10 11 14 14 14 12 11 13 12 13 11 14 16 24 31 28 53 37 43 41 37 36 39 40 40 40 39 40 42
15 16 16 16 16 16 16 15 14 14 16 14 8 5 4 5 12 13 17 17 16 14 15 16 17 16 11 12 16 24 30 31 40 44 43 46 45 40 40 43 40 40 42
12 14 16 16 17 17 17 17 16 15 15 16 9 6 8 10 6 14 13 12 16 19 18 18 18 17 15 12 12 12 16 25 41 41 44 40 35 43 41 44 41 40 41
12 12 13 14 15 15 15 14 13 13 12 11 10 11 9 10 12 18 22 20 22 21 17 20 20 20 15 14 9 11 18 17 27 30 39 47 47 50 44 41 42 40 41
16 15 14 14 13 13 14 12 10 11 12 12 12 11 11 9 14 16 22 31 30 27 26 24 15 12 18 21 20 15 14 10 14 25 32 40 43 46 47 45 40 40 41
16 18 17 16 15 14 12 11 11 10 10 11 12 12 12 14 18 19 23 28 28 32 28 15 15 8 9 15 20 24 20 16 21 22 29 33 43 45 47 58 57 46 41
15 17 18 17 14 12 10 10 9 9 7 8 9 9 10 13 15 17 19 22 26 19 19 8 16 12 14 15 20 22 22 23 22 25 23 32 32 40 49 54 64 58 56
11 12 15 15 13 11 10 11 11 9 9 10 8 7 5 5 7 9 12 14 12 9 15 14 15 17 22 21 19 16 18 18 19 25 27 23 28 33 35 48 50 62 66
8 11 13 11 8 8 9 8 9 9 9 11 10 7 5 4 7 5 6 7 8 10 9 13 17 15 19 21 20 17 15 16 14 14 19 27 26 25 31 34 39 51 68
9 9 11 9 5 6 8 9 9 9 8 10 10 10 9 8 9 10 8 6 5 4 8 11 10 14 14 15 13 13 12 13 15 17 13 14 22 25 27 27 31 29 31
9 10 10 8 4 5 7 9 9 9 7 9 12 7 9 10 10 13 14 12 8 9 8 9 11 13 13 13 11 10 6 9 12 17 14 16 16 17 21 24 26 29 26
9 10 9 6 4 5 6 10 11 11 9 9 11 12 11 12 13 13 14 16 14 12 10 10 13 15 17 17 12 11 8 4 8 11 13 13 14 15 17 17 19 21 26
8 9 8 6 4 5 6 9 11 12 13 12 12 14 15 16 15 13 14 14 15 16 15 16 18 20 22 23 21 23 17 12 1 2 5 11 13 14 15 19 20 21 24
5 7 6 5 6 7 9 8 9 10 12 12 13 15 17 15 14 13 11 14 17 18 18 20 21 23 26 28 31 27 25 22 11 11 15 10 8 7 12 15 20 22 22
3 4 6 7 7 10 9 10 10 10 12 14 15 15 16 16 15 14 14 14 14 19 21 22 22 24 26 27 27 28 28 31 29 16 23 18 19 19 10 8 11 16 22
5 6 8 8 7 7 6 11 11 11 12 15 16 18 17 17 16 15 15 14 15 17 19 20 22 23 24 25 25 25 24 24 21 22 24 24 21 22 15 5 5 10 14
6 7 8 10 9 8 7 10 11 11 11 13 17 19 19 20 18 17 15 15 17 18 19 19 19 19 19 20 22 23 22 20 15 12 25 26 29 24 14 2 19 20 15
7 7 8 9 10 11 8 9 9 11 12 14 16 20 20 21 21 19 16 18 19 20 19 18 17 16 17 18 20 21 25 27 27 16 26 29 33 35 18 5 16 24 19
5 6 6 8 9 11 11 8 9 10 11 13 15 17 20 20 20 20 21 22 23 24 19 16 16 17 19 22 23 25 25 27 27 14 30 32 32 35 23 13 33 31 27
Wind_Direction
248 250 258 263 265 265 269 271 276 280 279 277 278 275 268 266 264 263 263 262 255 256 257 256 250 247 246 244 251 244 237 229 224 225 224 222 220 220 217 217 216 214 213
250 256 259 271 268 265 270 278 275 274 275 278 280 279 274 270 269 267 263 262 261 256 258 248 248 251 245 246 244 245 240 234 228 228 226 226 224 223 221 220 222 220 219
272 271 273 270 279 287 282 280 285 287 282 278 279 279 281 284 280 272 272 271 270 266 257 236 242 259 236 236 243 240 240 236 233 229 230 228 228 226 224 224 223 223 222
268 275 278 278 270 269 275 287 286 288 290 284 281 278 274 279 286 279 279 275 260 251 241 243 262 255 226 223 242 237 238 239 236 235 232 232 231 231 227 226 226 226 225
304 290 285 280 280 276 275 277 287 289 291 288 285 282 280 274 275 280 282 276 261 253 253 236 258 246 255 274 279 235 233 241 242 240 238 235 235 233 232 229 229 229 230
321 314 308 297 290 283 283 280 277 284 289 290 288 287 284 282 270 262 260 259 254 253 258 275 248 253 254 269 309 261 211 232 237 245 239 237 239 236 236 234 232 232 232
339 331 325 319 309 299 293 284 285 289 286 288 291 287 285 277 268 246 242 239 228 247 257 254 256 263 259 262 258 266 208 265 241 239 241 238 242 242 238 238 235 234 234
322 321 318 315 317 316 311 307 308 300 293 300 309 306 298 259 260 242 224 217 219 222 240 254 262 274 271 266 257 249 226 264 240 238 242 242 242 241 244 239 238 237 238
318 313 311 307 304 300 299 305 309 313 309 310 329 302 307 301 296 223 224 240 245 237 240 253 256 259 271 267 269 263 255 251 238 243 249 246 241 240 243 245 239 239 240
323 319 319 314 308 304 302 302 301 301 301 305 313 229 255 267 296 300 260 233 238 255 262 261 265 267 277 286 278 288 287 264 249 248 247 243 243 234 239 242 243 240 240
336 330 327 324 324 324 320 314 309 304 303 304 297 297 288 266 260 262 286 284 279 280 281 273 269 271 270 273 287 286 277 287 280 265 251 240 253 238 239 240 242 241 241
351 350 347 343 339 335 336 337 325 313 308 303 294 285 275 279 256 263 271 281 297 302 296 308 306 281 262 259 260 273 258 277 290 274 261 245 244 239 236 242 245 244 243
4 5 359 356 351 352 350 347 345 334 328 313 304 291 272 257 262 270 274 282 291 296 313 323 300 314 284 257 254 256 257 284 278 284 270 255 239 235 240 245 247 250 241
19 15 11 7 6 7 6 7 358 353 343 322 309 296 276 261 258 261 271 284 296 301 310 310 308 301 290 279 278 259 255 263 282 278 296 250 246 243 242 242 243 242 241
23 19 17 14 19 12 21 31 30 27 18 3 349 334 307 301 292 270 270 277 291 313 318 318 314 303 301 294 290 283 266 258 269 274 264 261 248 247 247 242 241 235 240
9 16 20 17 25 25 18 27 32 34 21 10 21 18 22 26 26 356 308 294 272 270 276 281 315 315 302 306 306 294 281 267 266 275 267 263 282 276 246 251 251 242 233
355 360 9 12 14 23 13 23 24 22 21 12 29 32 39 42 45 27 21 16 18 356 302 322 336 315 319 323 319 302 288 272 251 260 260 246 256 260 270 262 258 252 246
335 350 6 10 19 19 13 9 17 14 6 9 22 20 29 38 41 38 33 39 45 35 20 4 358 360 1 356 349 342 321 277 266 255 261 256 259 251 255 262 273 260 247
341 352 3 9 30 32 18 18 23 25 20 22 21 22 21 27 34 30 29 36 41 49 46 34 27 22 21 14 25 28 22 327 258 251 254 254 244 254 254 260 254 259 252
337 354 13 28 58 52 26 22 26 30 38 39 35 34 29 25 25 24 25 29 32 39 36 32 31 25 26 27 27 19 24 17 78 31 322 260 258 251 249 250 252 248 248
342 12 32 54 72 63 45 42 43 43 45 45 44 43 41 35 27 31 30 26 26 29 28 28 25 23 22 23 21 16 12 14 13 22 16 1 350 282 257 250 249 250 248
35 51 56 67 77 70 51 36 45 46 50 50 51 49 49 44 36 28 33 25 21 26 28 29 26 26 20 17 16 15 12 10 6 0 5 8 14 12 351 291 264 261 252
85 81 69 65 75 73 48 35 39 42 46 48 50 47 45 47 44 36 32 29 24 30 35 29 26 26 20 12 7 11 18 17 6 344 342 355 359 18 13 10 330 303 287
98 80 71 63 62 71 51 46 43 49 51 50 48 48 42 37 48 43 42 38 37 35 36 32 27 25 21 12 13 11 9 15 25 351 353 356 351 356 15 30 14 356 340
104 85 80 74 58 66 69 58 48 48 52 56 56 51 42 39 39 44 44 49 50 47 43 37 34 32 24 19 12 3 9 8 13 16 353 1 352 344 356 328 346 349 346
93 79 80 75 71 63 60 71 58 56 60 62 56 54 51 44 39 39 37 40 40 37 38 38 37 32 29 27 24 22 18 16 11 13 356 357 353 355 340 334 336 343 339
Height
1519 1519 1518 1519 1519 1519 1518 1516 1515 1514 1515 1516 1515 1516 1516 1515 1515 1513 1514 1517 1520 1522 1526 1531 1532 1532 1533 1532 1531 1532 1533 1534 1536 1538 1540 1542 1543 1546 1548 1551 1553 1554 1555
1516 1515 1514 1515 1515 1514 1514 1513 1511 1510 1510 1509 1510 1509 1509 1509 1509 1507 1508 1510 1513 1515 1516 1519 1522 1526 1526 1526 1526 1525 1527 1529 1531 1534 1536 1538 1540 1542 1544 1547 1550 1551 1553
1512 1511 1510 1510 1510 1510 1508 1508 1508 1507 1507 1506 1505 1505 1505 1504 1503 1503 1504 1504 1503 1506 1513 1507 1510 1499 1511 1514 1514 1516 1519 1523 1526 1528 1531 1533 1535 1537 1539 1541 1545 1548 1549
1510 1508 1508 1507 1506 1504 1504 1504 1503 1503 1502 1500 1499 1499 1500 1500 1499 1499 1499 1499 1498 1499 1499 1499 1505 1498 1481 1481 1501 1509 1513 1518 1520 1523 1525 1528 1530 1532 1533 1535 1538 1542 1545
1507 1506 1505 1504 1502 1500 1498 1500 1500 1498 1496 1494 1493 1493 1494 1494 1495 1494 1494 1495 1496 1495 1491 1493 1493 1490 1492 1494 1487 1496 1508 1514 1517 1517 1520 1522 1524 1526 1527 1529 1532 1536 1539
1505 1503 1503 1501 1499 1497 1495 1495 1494 1493 1491 1488 1487 1487 1487 1487 1488 1489 1488 1488 1488 1488 1487 1487 1487 1489 1492 1495 1497 1492 1496 1508 1507 1511 1511 1514 1517 1519 1521 1523 1525 1529 1532
1503 1501 1499 1498 1496 1494 1492 1491 1489 1487 1486 1485 1483 1482 1482 1480 1480 1482 1482 1482 1483 1483 1483 1485 1486 1486 1490 1490 1490 1488 1490 1501 1500 1502 1505 1505 1508 1513 1513 1515 1518 1521 1525
1500 1498 1496 1495 1493 1492 1490 1488 1486 1484 1482 1481 1480 1479 1477 1477 1475 1476 1477 1477 1476 1477 1478 1478 1479 1482 1482 1479 1480 1485 1483 1481 1488 1494 1497 1499 1501 1504 1506 1507 1510 1513 1517
1496 1495 1493 1491 1490 1488 1486 1485 1484 1482 1480 1478 1478 1479 1477 1475 1471 1470 1470 1470 1470 1472 1473 1474 1475 1473 1473 1471 1475 1474 1476 1478 1482 1484 1488 1489 1490 1493 1497 1501 1502 1505 1509
1494 1491 1490 1488 1486 1483 1482 1481 1480 1478 1477 1476 1475 1476 1475 1474 1473 1466 1463 1464 1462 1463 1464 1465 1464 1465 1466 1468 1467 1467 1469 1470 1472 1476 1479 1479 1479 1483 1486 1492 1494 1497 1500
1490 1488 1486 1485 1483 1480 1478 1478 1477 1476 1475 1474 1473 1473 1471 1470 1470 1469 1461 1457 1456 1457 1458 1456 1459 1459 1459 1460 1461 1461 1460 1461 1463 1465 1466 1467 1470 1473 1476 1480 1484 1488 1491
1488 1485 1484 1483 1480 1478 1476 1476 1474 1473 1473 1472 1470 1469 1469 1468 1467 1465 1460 1456 1452 1450 1449 1451 1453 1453 1454 1453 1452 1452 1453 1452 1452 1451 1451 1453 1458 1463 1465 1470 1474 1478 1481
1486 1485 1484 1481 1478 1476 1476 1475 1473 1472 1470 1468 1467 1465 1464 1464 1462 1460 1457 1454 1452 1449 1448 1447 1448 1450 1448 1446 1446 1444 1444 1443 1442 1442 1442 1444 1447 1451 1457 1460 1464 1468 1470
1488 1487 1485 1483 1479 1478 1477 1475 1473 1471 1468 1466 1464 1461 1459 1458 1457 1455 1453 1450 1446 1445 1445 1447 1446 1444 1441 1439 1437 1435 1437 1438 1438 1438 1436 1435 1439 1441 1443 1446 1450 1454 1458
1489 1486 1486 1484 1482 1479 1477 1475 1473 1471 1468 1466 1463 1460 1457 1455 1453 1451 1449 1447 1445 1441 1438 1439 1441 1440 1434 1431 1430 1430 1430 1430 1431 1431 1430 1428 1429 1431 1431 1433 1435 1437 1443
1490 1487 1486 1485 1484 1480 1478 1476 1473 1471 1468 1467 1464 1461 1457 1453 1451 1449 1447 1445 1443 1442 1442 1440 1437 1432 1428 1425 1423 1423 1424 1424 1425 1425 1422 1422 1423 1423 1422 1422 1423 1420 1431
1491 1488 1486 1486 1484 1480 1478 1476 1474 1472 1469 1468 1465 1463 1458 1453 1450 1448 1445 1443 1440 1439 1438 1435 1432 1428 1426 1423 1421 1420 1418 1420 1420 1419 1416 1415 1417 1418 1417 1415 1415 1414 1401
1491 1489 1487 1486 1484 1480 1478 1477 1474 1472 1470 1469 1466 1463 1458 1454 1450 1447 1445 1441 1439 1437 1435 1433 1430 1426 1424 1421 1418 1416 1415 1416 1414 1413 1412 1412 1411 1412 1411 1409 1407 1406 1407
1491 1489 1487 1486 1483 1481 1478 1477 1475 1473 1470 1468 1467 1462 1458 1454 1450 1448 1446 1441 1439 1439 1436 1433 1429 1426 1423 1418 1415 1413 1411 1410 1408 1409 1407 1407 1406 1405 1404 1405 1405 1404 1406
1492 1489 1487 1485 1483 1481 1480 1478 1475 1473 1470 1468 1466 1462 1459 1453 1450 1450 1448 1445 1443 1438 1435 1432 1427 1424 1421 1417 1414 1410 1408 1405 1404 1406 1404 1402 1401 1401 1399 1398 1401 1401 1399
1491 1488 1487 1485 1483 1481 1479 1478 1477 1475 1473 1471 1467 1463 1459 1456 1455 1454 1451 1447 1442 1438 1434 1430 1428 1424 1419 1415 1411 1411 1408 1404 1404 1403 1400 1399 1399 1396 1393 1393 1395 1393 1394
1490 1489 1487 1485 1483 1482 1480 1478 1478 1476 1474 1471 1467 1465 1461 1459 1457 1455 1451 1446 1443 1438 1434 1433 1430 1427 1424 1420 1418 1414 1408 1402 1400 1400 1397 1397 1397 1394 1391 1391 1387 1386 1387
1490 1489 1487 1486 1484 1482 1481 1479 1478 1476 1474 1471 1468 1465 1463 1461 1458 1455 1452 1449 1445 1440 1437 1435 1433 1429 1426 1424 1421 1416 1412 1410 1406 1403 1399 1396 1396 1394 1390 1388 1384 1384 1383
1491 1490 1488 1487 1485 1482 1481 1480 1480 1478 1476 1472 1469 1467 1465 1461 1458 1457 1453 1450 1446 1442 1438 1437 1435 1432 1429 1427 1422 1418 1415 1413 1410 1406 1399 1395 1392 1391 1390 1387 1383 1385 1382
1492 1491 1490 1488 1486 1483 1482 1481 1481 1479 1477 1474 1472 1470 1467 1463 1460 1458 1455 1451 1448 1444 1442 1439 1436 1434 1430 1427 1423 1420 1413 1408 1407 1406 1403 1398 1394 1387 1387 1386 1388 1384 1379
1492 1491 1491 1489 1487 1485 1483 1482 1482 1480 1478 1475 1473 1471 1469 1468 1464 1459 1455 1452 1448 1445 1444 1442 1440 1436 1432 1428 1423 1417 1415 1411 1408 1406 1403 1400 1396 1390 1381 1379 1380 1377 1373